Location: Buckenweiler
(49.0667°N, 10.2500°E)
Time: 10:21:09
(UTC+00:00)

Lacrosse 5 rocket - Pass Details

Date: 18 January 2026
Orbit: 400 x 481 km, 57.0° (Epoch: 19 February)

Event Time Altitude Azimuth Distance (km) Brightness Sun altitude
Exits shadow 05:26:00 21° 333° (NNW) 1,150 2.6 -15.9°
Maximum altitude 05:27:38 29° 14° (NNE) 925 2.5 -15.6°
Drops below altitude 10° 05:30:59 10° 77° (ENE) 1,678 4.8 -15.1°
Sets 05:33:20 0° 88° (E) 2,553 6.3 -14.7°
